Theta_e
308 318 318 315 312 312 310 309 308 306 306 304 304 304 303 300 300 300 298 297 296 295 293 292 291 291 290 290 291 290 289 288 287 288 289 289 287 286 286 286 287 286 286
303 308 310 310 308 307 306 305 305 304 303 303 303 300 297 296 297 296 295 294 292 290 289 289 288 287 287 287 287 286 286 286 287 285 286 286 285 285 284 284 284 285 284
299 303 305 306 306 305 302 300 300 300 300 298 297 296 295 294 293 292 291 290 288 288 287 285 285 285 284 284 284 284 284 285 284 283 282 284 284 283 281 282 282 282 284
296 298 300 301 302 302 301 302 303 302 298 296 294 293 292 291 290 289 288 287 286 285 285 285 285 284 283 283 283 283 283 282 282 282 281 281 281 282 280 279 279 280 280
292 291 290 292 295 297 296 295 294 293 291 290 289 288 288 287 287 286 286 285 284 284 284 284 284 284 286 285 283 282 282 281 281 280 279 279 278 278 278 279 278 278 279
288 288 288 288 288 289 290 290 289 289 288 287 286 286 286 286 288 287 285 284 283 283 282 282 282 282 284 285 285 285 284 281 280 280 278 277 277 278 278 277 277 275 273
285 286 285 285 285 285 286 287 286 285 285 284 284 285 285 286 288 287 285 283 282 282 282 282 281 282 282 281 282 282 283 283 282 279 277 277 277 277 277 275 274 273 273
284 284 285 285 283 283 284 283 283 283 283 283 283 284 284 285 287 286 284 282 281 281 281 281 281 281 281 280 279 279 279 278 279 279 278 277 278 277 275 274 273 272 272
283 283 284 284 284 283 281 281 281 282 282 282 283 283 283 284 286 285 283 281 280 280 280 280 280 279 281 281 278 277 277 276 279 279 279 280 278 278 276 273 269 267 265
282 283 284 284 283 281 281 281 281 281 281 282 282 282 282 283 286 285 282 281 280 279 280 280 280 279 281 279 277 277 275 274 274 274 275 275 274 274 274 272 271 266 266
283 282 282 282 282 281 280 280 280 280 280 280 280 280 281 282 283 285 284 281 280 279 279 278 278 280 280 280 279 276 274 273 272 272 272 271 271 271 271 271 270 268 266
281 280 279 280 281 280 279 279 279 279 278 278 278 278 279 280 282 283 283 282 282 279 277 277 277 279 279 278 277 276 274 272 269 268 267 267 267 268 268 268 269 268 268
279 278 278 279 280 280 280 278 278 278 278 277 277 276 276 278 279 283 283 282 281 277 277 278 278 278 276 276 275 274 271 269 267 263 265 265 266 267 267 266 267 266 266
279 278 278 278 277 278 279 279 278 278 277 277 276 275 275 275 275 276 278 279 278 276 276 274 275 274 273 271 270 269 268 267 266 265 264 265 265 264 263 265 263 263 261
276 275 275 275 276 275 275 276 277 276 278 277 276 276 274 273 275 277 276 274 272 273 267 266 266 267 266 266 265 265 265 265 263 264 261 261 262 262 262 263 262 260 256
273 273 273 273 273 273 274 271 281 281 282 282 281 277 275 278 281 280 279 278 277 275 261 259 262 264 264 263 262 261 262 261 262 261 259 259 259 260 260 260 260 256 256
272 271 271 271 271 271 270 272 271 274 282 282 282 281 280 281 281 280 280 278 276 270 257 258 260 262 262 263 261 260 259 260 260 258 258 258 259 258 257 258 258 257 256
268 269 270 270 270 268 268 267 268 271 269 268 279 279 281 281 280 280 278 273 260 260 255 256 257 258 259 258 257 257 257 256 255 255 254 252 251 252 252 253 255 252 254
267 267 267 267 266 268 268 267 266 264 263 263 263 275 274 279 279 278 276 260 257 257 257 257 256 255 255 254 254 253 252 252 253 250 250 249 250 250 251 253 255 255 255
265 267 267 268 266 266 266 266 264 262 262 262 262 265 262 266 263 261 259 259 259 258 257 256 253 252 252 251 250 249 249 249 250 250 251 250 250 249 252 252 254 254 254
269 267 267 266 267 267 267 267 266 266 265 265 266 264 270 268 266 262 259 256 257 257 256 255 252 251 250 249 249 250 249 250 249 248 247 248 248 250 250 253 254 255 255
268 267 267 269 266 267 267 266 267 267 266 265 263 266 275 262 262 260 257 256 254 254 255 256 255 254 251 251 250 249 248 248 248 246 247 248 249 250 250 252 253 254 254
268 267 266 263 265 264 263 266 267 267 267 268 267 265 266 262 259 257 256 254 256 257 257 256 254 250 246 245 245 247 248 251 250 247 248 250 251 252 253 253 253 254 254
268 269 268 266 264 264 264 266 268 269 268 265 263 262 260 259 258 258 258 257 258 257 256 254 253 249 247 247 246 245 247 249 247 249 249 251 253 254 253 252 254 254 254
267 266 264 264 265 265 266 266 265 262 262 262 260 260 259 258 259 258 258 258 257 255 254 253 248 247 247 248 249 248 249 254 252 252 251 252 253 254 254 254 254 255 255
264 264 264 265 265 265 264 264 263 262 261 261 260 260 259 259 259 259 257 256 255 254 252 248 246 247 248 250 251 253 255 259 258 259 257 255 255 256 256 257 259 260 261
Wind_Speed
11 8 10 10 10 7 7 8 10 11 13 12 11 10 11 8 7 11 5 12 9 8 8 7 7 5 5 4 4 6 5 4 1 2 4 4 6 8 10 9 9 9 9
7 8 5 9 11 12 12 9 3 14 11 13 14 11 9 12 8 5 6 9 10 8 9 9 7 5 7 6 5 7 5 4 1 1 2 4 4 5 8 9 8 7 8
6 6 4 5 9 13 15 17 11 13 10 12 10 13 9 14 11 7 7 9 10 8 8 10 8 8 6 5 5 5 4 4 3 2 1 2 1 3 4 4 6 8 7
4 4 2 3 3 7 10 14 18 14 12 8 11 10 11 8 13 12 8 10 10 9 9 9 8 8 6 5 5 3 4 3 2 1 1 1 1 3 2 4 7 4 9
3 3 4 5 6 1 10 7 9 12 11 11 14 13 10 11 9 9 10 11 11 10 8 10 8 8 12 9 4 3 3 2 2 2 2 2 2 5 7 5 6 6 8
3 5 5 8 8 8 4 11 12 13 14 13 10 12 10 8 21 19 13 10 11 10 10 8 8 8 10 12 11 11 8 4 5 3 2 4 5 5 4 5 5 7 5
4 6 7 9 10 11 6 11 12 13 14 14 11 12 11 10 20 19 16 9 9 9 9 7 7 5 6 6 10 11 10 13 10 4 4 4 4 7 6 6 7 7 5
5 6 8 10 13 11 13 10 12 11 12 11 11 12 10 11 22 20 17 10 9 9 9 8 7 6 6 5 4 4 5 5 6 5 5 5 5 6 6 6 7 8 8
6 6 8 11 13 13 12 10 10 9 9 9 8 12 10 10 19 17 13 10 10 9 8 7 6 5 7 8 4 5 5 8 9 12 10 11 14 14 12 5 6 6 3
7 7 8 11 15 12 11 9 7 7 10 5 8 10 7 10 14 15 9 7 9 7 7 6 8 5 10 10 6 5 6 6 6 6 6 8 11 10 13 9 7 5 4
7 9 8 10 12 12 10 7 6 8 11 6 10 8 6 8 10 15 13 6 8 6 5 4 3 10 9 10 10 6 6 4 6 5 5 5 6 6 5 6 7 6 5
9 10 8 10 5 8 11 8 8 8 9 10 8 6 4 5 9 12 12 12 13 8 6 4 4 10 9 10 7 10 9 6 3 5 5 5 4 4 5 6 6 6 5
8 9 6 8 5 5 9 9 6 5 6 6 5 7 5 2 2 13 13 13 14 7 5 9 12 11 10 8 11 10 7 3 4 4 4 3 4 5 6 5 5 6 6
8 8 5 6 5 4 4 4 6 6 6 6 6 6 5 3 2 2 4 6 11 7 10 7 8 10 9 8 5 7 5 5 5 4 3 3 3 4 5 6 4 7 6
6 4 4 4 3 4 4 2 4 2 4 6 5 6 8 6 5 8 8 5 4 8 7 4 3 2 3 4 4 5 5 4 3 3 2 3 4 4 4 5 4 5 2
6 4 4 5 3 4 5 2 5 5 8 7 11 8 1 8 15 14 13 12 11 15 5 3 2 3 4 3 3 2 1 2 1 1 1 1 2 4 4 5 5 3 5
7 6 4 5 5 6 4 6 7 2 7 8 10 12 13 13 15 13 14 11 10 7 4 2 3 3 3 3 2 2 1 0 1 0 1 2 3 3 3 4 5 5 6
4 5 4 4 5 5 5 4 4 6 6 3 8 7 11 13 11 12 12 10 3 4 3 3 3 3 2 3 2 2 1 1 1 2 2 2 2 1 2 3 4 3 3
6 5 5 5 4 4 4 5 5 4 3 3 2 4 3 10 11 10 11 3 4 2 2 3 2 3 3 3 2 1 1 0 1 1 2 1 2 1 3 4 4 6 6
4 6 6 5 4 4 4 5 4 4 3 3 3 3 2 4 2 2 1 2 2 2 3 4 3 3 3 3 2 1 0 1 2 2 2 2 2 2 4 4 4 6 6
5 4 5 3 5 5 5 5 4 5 4 4 4 4 10 5 5 4 3 2 3 3 4 3 3 3 2 2 2 1 1 2 1 3 3 3 2 4 4 4 5 7 7
4 4 4 5 3 4 4 4 4 4 4 5 3 5 18 3 4 5 4 4 3 3 3 3 3 2 3 3 3 2 2 3 3 3 3 3 3 4 3 4 6 7 7
5 5 4 3 3 4 3 4 5 5 6 6 6 6 5 5 5 5 5 4 4 3 3 3 3 1 2 2 3 3 3 5 4 3 3 4 4 4 5 7 7 7 6
6 7 6 4 3 2 3 4 4 6 6 6 6 5 5 5 6 6 5 4 4 3 2 2 2 3 2 3 2 3 4 5 3 4 6 5 6 7 7 7 8 8 8
4 4 3 4 4 5 5 4 4 3 4 5 6 5 5 6 6 5 5 4 3 3 3 2 2 2 3 5 6 7 6 9 7 6 5 7 10 11 9 7 8 9 10
4 5 4 4 4 5 5 5 5 5 5 5 6 6 6 6 6 5 5 4 3 2 2 1 2 4 6 6 7 9 10 11 9 11 9 7 8 8 6 8 12 10 11
Wind_Direction
334 244 190 175 155 157 143 149 148 139 133 121 116 118 116 112 113 108 112 102 86 86 81 81 67 62 72 72 69 72 59 35 108 323 21 6 26 20 4 3 358 355 350
331 321 256 167 153 146 135 109 127 137 127 136 143 131 136 85 91 93 115 100 111 106 93 81 67 69 59 55 66 70 75 48 87 54 343 1 24 25 357 351 346 339 338
335 313 305 238 174 159 144 136 139 125 135 145 141 124 114 127 111 101 120 109 99 99 105 103 110 106 81 61 60 75 74 82 68 99 328 359 313 19 342 331 331 321 334
349 354 352 318 262 147 154 151 152 155 142 121 115 100 107 105 109 121 116 99 96 93 90 92 84 79 87 90 85 72 70 80 79 92 127 287 352 339 324 341 343 324 319
34 54 55 34 36 97 122 112 109 108 108 107 110 104 111 110 110 109 113 110 113 106 102 101 95 92 88 79 84 62 59 65 64 45 60 21 17 356 355 343 323 319 316
76 79 66 71 56 61 53 108 103 104 103 106 96 105 110 111 112 121 119 118 121 122 116 104 91 72 67 66 65 59 52 47 55 31 28 20 13 360 335 347 342 344 338
85 86 91 86 82 76 39 90 100 103 103 95 99 97 97 104 110 113 118 118 117 111 111 102 90 81 72 64 57 56 64 56 55 64 43 27 11 14 11 353 347 320 304
100 98 106 104 92 75 84 64 79 85 104 104 111 108 114 110 117 114 109 105 100 102 99 96 86 70 76 71 67 76 90 53 46 44 48 38 43 45 25 355 336 325 301
104 107 107 103 100 101 87 88 97 88 86 106 96 108 101 118 118 123 121 113 104 97 93 89 90 84 69 85 89 84 66 44 37 32 42 54 36 36 24 354 360 3 319
98 100 95 104 101 91 96 92 82 107 111 97 88 81 85 101 120 123 112 106 113 107 102 97 94 90 85 75 69 59 62 33 24 35 48 44 36 26 20 21 3 1 341
90 87 81 80 97 109 103 102 108 103 96 102 87 74 100 107 123 131 132 141 124 125 114 111 72 83 86 79 80 71 71 38 33 52 53 43 31 20 13 9 9 7 339
90 80 80 93 101 114 108 107 113 122 106 101 113 93 65 89 114 116 135 127 127 124 126 113 89 98 91 89 83 83 76 71 39 50 50 40 15 2 360 354 0 352 332
102 92 85 79 82 102 119 122 108 92 110 120 144 134 127 61 95 135 121 121 118 104 116 114 103 105 90 79 85 88 70 58 53 51 43 17 1 349 356 346 346 338 329
108 85 77 105 105 66 79 118 128 140 147 160 157 146 133 163 122 94 100 120 111 98 101 91 115 110 108 93 71 68 64 50 48 46 32 355 350 359 1 355 341 346 338
104 122 111 80 87 104 80 111 124 117 174 169 171 158 159 172 188 160 141 120 114 119 90 62 67 104 110 87 71 68 57 50 52 36 22 5 5 356 347 348 332 336 318
117 128 143 139 138 114 115 80 109 128 187 182 164 158 111 165 166 162 140 135 142 140 65 120 170 115 109 101 81 67 50 46 30 23 7 354 352 346 335 334 325 302 300
150 151 159 147 144 149 162 157 133 87 129 144 165 173 168 156 161 152 139 135 146 121 109 163 120 116 110 105 130 145 154 34 17 59 40 0 341 321 327 318 302 296 313
145 168 167 160 168 166 164 153 130 165 169 186 173 153 152 153 152 147 148 122 61 43 103 131 143 143 150 150 146 152 195 333 20 22 13 338 317 291 319 288 275 265 288
168 174 171 160 167 157 159 178 184 158 157 142 53 129 127 152 154 152 145 137 151 142 134 132 142 159 163 149 154 154 145 345 342 358 310 295 288 285 286 271 285 300 296
176 176 174 173 166 168 169 166 164 163 149 150 146 152 122 73 104 116 96 124 126 133 144 147 177 159 149 153 152 141 32 358 351 319 286 295 286 243 269 281 292 297 294
182 179 172 159 182 183 176 184 163 155 162 172 184 171 179 165 167 157 157 156 149 152 164 160 163 156 155 142 131 147 210 297 276 259 267 268 275 291 257 259 280 280 276
164 167 176 196 156 172 182 155 161 161 161 164 169 196 197 131 153 158 151 159 172 157 151 144 147 161 169 173 183 184 242 256 256 246 260 262 267 268 260 277 278 275 274
168 172 176 179 169 147 144 165 169 171 174 176 170 174 163 155 152 149 152 150 145 139 145 134 132 179 216 213 198 188 214 248 239 201 249 272 272 268 267 269 270 272 275
176 186 186 174 162 168 161 171 177 177 167 160 154 151 146 143 145 144 136 139 137 133 126 121 158 197 240 261 246 225 233 249 220 239 219 240 260 267 258 253 261 267 276
154 141 139 151 154 159 155 150 147 140 153 155 147 139 130 127 130 130 137 141 127 137 156 174 197 237 265 281 276 271 256 271 254 232 223 228 244 254 258 261 269 275 273
130 135 144 149 156 161 163 167 164 152 155 148 140 136 140 137 137 139 136 139 150 170 188 216 255 269 276 269 271 274 267 272 268 255 234 227 234 243 241 252 265 270 274